Weather History for Edinburg, TX

Change the Weather History Date:

Monday, March 11, 2013

  Actual Average (KMFE) Record (KMFE)
Temperature  
Mean Temperature 64 °F 70 °F  
Max Temperature 79 °F 81 °F 99 °F (2006)
Min Temperature 49 °F 59 °F 33 °F (1885)
Degree Days  
Heating Degree Days 1 2  
Month to date heating degree days 22  
Since 1 July heating degree days 555  
Cooling Degree Days 0 6  
Month to date cooling degree days 61  
Year to date cooling degree days 220  
Growing Degree Days 14 (Base 50)    
Moisture  
Dew Point 23 °F    
Average Humidity 24    
Maximum Humidity 52    
Minimum Humidity 7    
Precipitation  
Precipitation 0.00 in 0.03 in 2.11 in (1997)
Month to date precipitation 0.40  
Year to date precipitation 2.56  
Sea Level Pressure  
Sea Level Pressure 30.10 in    
Wind  
Wind Speed 10 mph (NNW)    
Max Wind Speed 18 mph    
Max Gust Speed 25 mph    
Visibility 7 miles    
Events      
T = Trace of Precipitation, MM = Missing Value Source: NWS Daily Summary

Daily Weather History Graph

Daily Weather History Graph

Search for Another Location

Airport:

Trip Planner

Search our weather history database for the weather conditions in past years. The results will help you decide how hot, cold, wet, or windy it might be!

Date:

Astronomy

Mar. 11, 2013 Rise Set
Actual Time 7:45 AM CDT 7:39 PM CDT
Civil Twilight 7:22 AM CDT 8:02 PM CDT
Nautical Twilight 6:55 AM CDT 8:29 PM CDT
Astronomical Twilight 6:29 AM CDT 8:56 PM CDT
Moon 7:23 AM CDT (3/11) 7:47 PM CDT (3/11)
Length of Visible Light 12h 39m
Length of Day
11h 53m
Waning Crescent, 0% of the Moon is Illuminated
Mar 11
Waning Crescent
Mar 11
New
Mar 19
First Quarter
Mar 27
Full
Apr 2
Last Quarter

Hourly Weather History & Observations

Time (CDT) Temp. Dew Point Humidity Pressure Visibility Wind Dir Wind Speed Gust Speed Precip Events Conditions
12:15 AM 68.4 °F 28.2 °F 22% 30.05 in 10.0 mi North 15.0 mph 24.2 mph N/A   Mostly Cloudy
12:35 AM 68.0 °F 28.4 °F 23% 30.06 in 10.0 mi North 17.3 mph 23.0 mph N/A   Mostly Cloudy
12:55 AM 67.1 °F 28.8 °F 24% 30.06 in 7.0 mi North 16.1 mph 23.0 mph N/A   Mostly Cloudy
1:35 AM 65.8 °F 27.5 °F 24% 30.08 in 7.0 mi NNE 15.0 mph 21.9 mph N/A   Mostly Cloudy
1:55 AM 64.9 °F 27.3 °F 24% 30.08 in 10.0 mi North 13.8 mph 18.4 mph N/A   Scattered Clouds
2:15 AM 64.4 °F 27.5 °F 25% 30.09 in 10.0 mi North 11.5 mph - N/A   Scattered Clouds
2:35 AM 63.7 °F 27.5 °F 25% 30.09 in 7.0 mi North 12.7 mph - N/A   Clear
2:55 AM 62.6 °F 27.9 °F 27% 30.09 in 10.0 mi North 8.1 mph - N/A   Clear
3:15 AM 61.3 °F 28.0 °F 28% 30.09 in 10.0 mi North 10.4 mph - N/A   Clear
3:35 AM 60.8 °F 28.2 °F 29% 30.09 in 7.0 mi North 9.2 mph - N/A   Clear
3:55 AM 60.1 °F 28.2 °F 30% 30.09 in 7.0 mi North 6.9 mph - N/A   Clear
4:15 AM 59.0 °F 28.4 °F 31% 30.09 in 7.0 mi North 8.1 mph - N/A   Scattered Clouds
4:35 AM 58.1 °F 28.4 °F 32% 30.09 in 7.0 mi North 5.8 mph - N/A   Scattered Clouds
5:15 AM 55.9 °F 28.8 °F 35% 30.10 in 7.0 mi North 6.9 mph - N/A   Clear
5:35 AM 55.4 °F 29.3 °F 37% 30.10 in 7.0 mi North 5.8 mph - N/A   Clear
5:55 AM 55.4 °F 29.3 °F 37% 30.11 in 7.0 mi NNW 4.6 mph - N/A   Clear
6:15 AM 55.2 °F 29.3 °F 37% 30.12 in 7.0 mi NW 6.9 mph - N/A   Clear
6:35 AM 54.1 °F 29.3 °F 39% 30.13 in 7.0 mi NNW 5.8 mph - N/A   Clear
6:55 AM 52.7 °F 29.8 °F 42% 30.13 in 7.0 mi NW 5.8 mph - N/A   Clear
7:15 AM 51.3 °F 29.7 °F 44% 30.14 in 7.0 mi WNW 4.6 mph - N/A   Clear
7:35 AM 50.4 °F 29.7 °F 45% 30.15 in 7.0 mi WNW 4.6 mph - N/A   Clear
7:55 AM 50.0 °F 29.7 °F 46% 30.16 in 5.0 mi WNW 5.8 mph - N/A   Haze
8:15 AM 49.6 °F 29.7 °F 46% 30.16 in 7.0 mi WNW 4.6 mph - N/A   Clear
8:35 AM 50.5 °F 29.8 °F 45% 30.18 in 5.0 mi WNW 4.6 mph - N/A   Haze
8:55 AM 52.5 °F 30.0 °F 42% 30.18 in 7.0 mi WNW 4.6 mph - N/A   Clear
9:15 AM 56.1 °F 29.3 °F 36% 30.19 in 7.0 mi WNW 4.6 mph - N/A   Clear
9:35 AM 58.6 °F 29.1 °F 33% 30.19 in 5.0 mi WNW 4.6 mph - N/A   Haze
9:55 AM 60.1 °F 28.6 °F 30% 30.20 in 5.0 mi Calm Calm - N/A   Haze
10:15 AM 61.0 °F 27.7 °F 28% 30.20 in 7.0 mi Calm Calm - N/A   Clear
10:35 AM 62.8 °F 27.7 °F 27% 30.20 in 0.8 mi Calm Calm - N/A   Haze
10:55 AM 64.4 °F 24.1 °F 22% 30.20 in 5.0 mi Calm Calm - N/A   Haze
11:35 AM 68.2 °F 18.5 °F 15% 30.19 in 4.0 mi NNW 10.4 mph - N/A   Haze
11:55 AM 69.8 °F 18.9 °F 14% 30.18 in 7.0 mi North 8.1 mph - N/A   Clear
12:15 PM 71.1 °F 15.8 °F 12% 30.18 in 7.0 mi NNW 9.2 mph 17.3 mph N/A   Clear
12:35 PM 72.3 °F 15.6 °F 12% 30.17 in 7.0 mi NNW 10.4 mph - N/A   Clear
12:55 PM 73.2 °F 15.1 °F 11% 30.16 in 7.0 mi NW 6.9 mph 16.1 mph N/A   Clear
1:15 PM 74.8 °F 14.2 °F 10% 30.14 in 7.0 mi NW 15.0 mph 19.6 mph N/A   Clear
1:35 PM 74.8 °F 13.8 °F 10% 30.12 in 7.0 mi NW 13.8 mph 17.3 mph N/A   Clear
1:55 PM 75.9 °F 13.3 °F 9% 30.11 in 5.0 mi North 12.7 mph 23.0 mph N/A   Haze
2:15 PM 77.0 °F 12.7 °F 9% 30.09 in 5.0 mi WNW 11.5 mph 21.9 mph N/A   Haze
2:35 PM 78.1 °F 12.0 °F 8% 30.08 in 5.0 mi NNW 13.8 mph 23.0 mph N/A   Haze
2:55 PM 79.0 °F 10.8 °F 7% 30.07 in 7.0 mi NNW 12.7 mph 25.3 mph N/A   Clear
3:15 PM 79.5 °F 10.0 °F 7% 30.06 in 7.0 mi NNW 13.8 mph 20.7 mph N/A   Clear
3:35 PM 79.2 °F 9.3 °F 7% 30.05 in 5.0 mi NNW 13.8 mph 24.2 mph N/A   Haze
3:55 PM 79.7 °F 9.7 °F 7% 30.04 in 7.0 mi North 12.7 mph 21.9 mph N/A   Clear
4:15 PM 79.2 °F 8.8 °F 7% 30.03 in 5.0 mi NW 9.2 mph 16.1 mph N/A   Haze
4:35 PM 79.2 °F 9.7 °F 7% 30.02 in 7.0 mi NNW 18.4 mph 23.0 mph N/A   Clear
4:55 PM 79.2 °F 9.1 °F 7% 30.02 in 7.0 mi North 11.5 mph 17.3 mph N/A   Clear
5:15 PM 79.0 °F 8.8 °F 7% 30.01 in 7.0 mi North 12.7 mph 18.4 mph N/A   Clear
5:35 PM 79.5 °F 8.8 °F 7% 30.01 in 5.0 mi NNW 10.4 mph - N/A   Haze
5:55 PM 78.3 °F 7.9 °F 7% 30.01 in 7.0 mi NNW 5.8 mph - N/A   Clear
6:15 PM 77.9 °F 9.1 °F 7% 30.02 in 7.0 mi NW 8.1 mph - N/A   Clear
6:35 PM 77.0 °F 10.4 °F 8% 30.02 in 5.0 mi North 10.4 mph 16.1 mph N/A   Haze
6:55 PM 76.3 °F 10.2 °F 8% 30.02 in 5.0 mi North 9.2 mph - N/A   Haze
7:15 PM 75.4 °F 10.6 °F 8% 30.02 in 5.0 mi North 6.9 mph - N/A   Haze
7:35 PM 73.9 °F 11.3 °F 9% 30.03 in 7.0 mi North 6.9 mph - N/A   Clear
7:55 PM 71.1 °F 12.2 °F 10% 30.04 in 10.0 mi North 6.9 mph - N/A   Clear
8:15 PM 70.9 °F 11.8 °F 10% 30.04 in 7.0 mi NE 5.8 mph - N/A   Clear
8:35 PM 67.3 °F 30.6 °F 25% 30.05 in 7.0 mi ESE 9.2 mph - N/A   Clear
8:55 PM 65.3 °F 33.8 °F 31% 30.07 in 7.0 mi ESE 6.9 mph - N/A   Clear
9:15 PM 63.7 °F 33.8 °F 33% 30.07 in 10.0 mi ESE 8.1 mph - N/A   Clear
9:35 PM 61.5 °F 34.7 °F 37% 30.08 in 7.0 mi ESE 8.1 mph - N/A   Clear
9:55 PM 58.3 °F 34.2 °F 40% 30.10 in 7.0 mi SE 5.8 mph - N/A   Clear
10:15 PM 57.7 °F 35.2 °F 43% 30.10 in 7.0 mi SE 4.6 mph - N/A   Clear
10:35 PM 58.1 °F 36.0 °F 44% 30.11 in 10.0 mi Calm Calm - N/A   Clear
10:55 PM 57.2 °F 36.9 °F 47% 30.12 in 7.0 mi Calm Calm - N/A   Clear
11:15 PM 57.4 °F 37.4 °F 47% 30.12 in 7.0 mi Calm Calm - N/A   Clear
11:55 PM 54.9 °F 37.6 °F 52% 30.12 in 5.0 mi Calm Calm - N/A   Haze